STARLINK-36905, 68176

Orbit data source: Space-Track

STARLINK-36905, 68176 is a payload satellite owned by SpaceX/Seattle (US) in LEO that was launched on Sat, 14 Mar 2026 UTC via an FALCON 9 launch vehicle from the Air Force Eastern Test Range (AFETR). Payload-class satellites include a variety of spacecraft equipped with specific instruments for various scientific and technological missions. These include communications satellites like Starlink; space stations such as the ISS; scientific satellites like the Hubble; Earth observation satellites from companies like Planet Labs, Umbra, and HawkEye 360; GPS; miniature CubeSats for education and research; and military/defense satellites.

Loading next visibility...
Identifier
68176, 2026-050K
Orbit
LEO
Country
Flag of USUS
Related business
Manufacturer
SpaceX/Seattle
Mission
Operational spacecraft
Bus & Motor
STARLINK V2MO, Unknown motor
Mass
575 kg wet, ~530 kg dry
Launch date (UTC)
2026-03-14 (3 months ago)
Launch vehicle
FALCON 9
Launch site
Air Force Eastern Test Range (AFETR)
Object type
Payload
Rocket body
Debris
Shape & HBR
Unknown shape, 17.7 m
Radar Cross Section
Large (>1 m²)

Expand to show TLE details & history
Last TLE update: 14 hours ago

TLE from 14 hours ago
0 STARLINK-36905
1 68176U 26050K   26171.25575494  .00008464  00000-0  26133-3 0  9999
2 68176  53.1587 149.1186 0001337  87.2827 272.8329 15.34403348 16406
Epoch: 2026-06-20T06:08Z
TLE epoch observation values (Epoch: 2026-06-20T06:08:17.226Z)
Latitude
-0.00001°
Longitude
148.57382°
Altitude
463.549 km
Speed
7.636 km/s
True Right ascension
09h 56m 28s
True Declination
0° 00' 00"
Sunlit
Object was in daylight at epoch
Visualization orbit readout
Latitude
Unknown
Longitude
Unknown
Altitude
Unknown
Speed
Unknown
Apparent Right ascension
Unknown
Apparent Declination
Unknown
Sunlit
N/A
Visualization observer readout
Local Sidereal Time
07:21:21
Azimuth
Unknown
Elevation
Unknown
Doppler factor
Unknown
Orbital elements
Apogee altitude
463.865 km
Perigee altitude
462.036 km
Semi-major axis
6,841.087 km
Eccentricity
0.00013
Inclination
53.1587°
RAAN
149.1186°
Arg. of periapsis
87.2827°
True anomaly
272.8176°
Mean anomaly
272.8329°
Eccentric anomaly
272.82525°
Mean motion
3.8358 °/min
Orbital period
93.85 mins
BSTAR
0.00026133
Loading maneuver chart data...
Computing Atmospheric mass density...
Loading historical data...
Loading historical data...
Loading historical data...
Loading historical data...
Loading historical data...
Loading historical data...
Loading historical data...

Documentation

Showing up to 5 results
|